| time (UTC) | temp F | wind direction | speed knots | gust knots | rain 1hr in | rain 24hr in | rain mn in | humidity % | barometer mb |
| 20260906224551 | 81 | 215 | 0.0 | 2.6 | 0.00 | 0.00 | 0.00 | 26 | 1008.5 |
| 20260906223049 | 80 | 67 | 1.7 | 5.2 | 0.00 | 0.00 | 0.00 | 30 | 1008.3 |
| 20260906221548 | 80 | 19 | 0.0 | 0.0 | 0.00 | 0.00 | 0.00 | 28 | 1008.6 |
| 20260906220046 | 83 | 39 | 0.0 | 3.5 | 0.00 | 0.00 | 0.00 | 27 | 1008.8 |
| 20260906214544 | 82 | 72 | 0.0 | 1.7 | 0.00 | 0.00 | 0.00 | 26 | 1009.0 |
| 20260906213045 | 83 | 207 | 0.0 | 0.9 | 0.00 | 0.00 | 0.00 | 26 | 1009.1 |
| 20260906211542 | 83 | 332 | 0.9 | 5.2 | 0.00 | 0.00 | 0.00 | 28 | 1009.3 |
| 20260906210036 | 83 | 144 | 0.0 | 2.6 | 0.00 | 0.00 | 0.00 | 25 | 1009.7 |
| 20260906204551 | 83 | 110 | 0.0 | 5.2 | 0.00 | 0.00 | 0.00 | 27 | 1009.8 |
| 20260906203029 | 81 | 309 | 0.0 | 0.9 | 0.00 | 0.00 | 0.00 | 27 | 1010.0 |
| 20260906201527 | 81 | 13 | 1.7 | 3.5 | 0.00 | 0.00 | 0.00 | 29 | 1010.2 |
| 20260906200024 | 81 | 1 | 0.0 | 2.6 | 0.00 | 0.00 | 0.00 | 29 | 1010.3 |
| 20260906194522 | 79 | 343 | 0.0 | 1.7 | 0.00 | 0.00 | 0.00 | 30 | 1010.5 |
| 20260906193020 | 81 | 212 | 1.7 | 4.3 | 0.00 | 0.00 | 0.00 | 26 | 1010.6 |
| 20260906191518 | 81 | 156 | 0.0 | 3.5 | 0.00 | 0.00 | 0.00 | 28 | 1010.8 |
| 20260906190013 | 80 | 159 | 0.0 | 3.5 | 0.00 | 0.00 | 0.00 | 30 | 1011.2 |
| 20260906184510 | 80 | 207 | 1.7 | 2.6 | 0.00 | 0.00 | 0.00 | 28 | 1011.4 |
| 20260906183013 | 79 | 35 | 0.9 | 3.5 | 0.00 | 0.00 | 0.00 | 29 | 1011.7 |
| 20260906181506 | 78 | 42 | 1.7 | 6.1 | 0.00 | 0.00 | 0.00 | 31 | 1011.9 |
| 20260906180004 | 77 | 257 | 0.0 | 2.6 | 0.00 | 0.00 | 0.00 | 30 | 1012.1 |
| 20260906174602 | 76 | 133 | 0.9 | 5.2 | 0.00 | 0.00 | 0.00 | 32 | 1012.3 |
| 20260906173056 | 75 | 50 | 0.0 | 0.9 | 0.00 | 0.00 | 0.00 | 39 | 1012.5 |
| 20260906171602 | 74 | 319 | 0.0 | 1.7 | 0.00 | 0.00 | 0.00 | 37 | 1012.6 |
| 20260906170106 | 73 | 241 | 0.0 | 0.0 | 0.00 | 0.00 | 0.00 | 36 | 1012.6 |
| 20260906164548 | 71 | 293 | 0.0 | 0.9 | 0.00 | 0.00 | 0.00 | 36 | 1012.8 |
| 20260906163053 | 69 | 195 | 0.0 | 0.0 | 0.00 | 0.00 | 0.00 | 44 | 1013.0 |
| 20260906161540 | 67 | 253 | 0.0 | 0.9 | 0.00 | 0.00 | 0.00 | 46 | 1013.1 |
| 20260906160036 | 63 | 87 | 0.0 | 0.9 | 0.00 | 0.00 | 0.00 | 63 | 1013.1 |
| 20260906154530 | 60 | 26 | 0.0 | 0.0 | 0.00 | 0.00 | 0.00 | 70 | 1013.1 |
| 20260906153029 | 57 | 26 | 0.0 | 0.0 | 0.00 | 0.00 | 0.00 | 81 | 1013.2 |
| 20260906151522 | 54 | 26 | 0.0 | 0.0 | 0.00 | 0.00 | 0.00 | 81 | 1013.4 |
| 20260906150024 | 52 | 26 | 0.0 | 0.0 | 0.00 | 0.00 | 0.00 | 79 | 1013.6 |
| 20260906144521 | 50 | 26 | 0.0 | 0.0 | 0.00 | 0.00 | 0.00 | 81 | 1013.5 |
| 20260906143014 | 0 | 0.0 | 0.0 | 0.00 | 0.00 | 0.00 | 1013.5 | ||
| 20260906141516 | 0 | 0.0 | 0.0 | 0.00 | 0.00 | 0.00 | 1013.6 | ||
| 20260906140005 | 0 | 0.0 | 0.0 | 0.00 | 0.00 | 0.00 | 1013.6 | ||
| 20260906134502 | 0 | 0.0 | 0.0 | 0.00 | 0.00 | 0.00 | 1013.5 | ||
| 20260906133120 | 0 | 0.0 | 0.0 | 0.00 | 0.00 | 0.00 | 1013.6 | ||
| 20260906131554 | 0 | 0.0 | 0.0 | 0.00 | 0.00 | 0.00 | 1013.3 | ||
| 20260906130105 | 0 | 0.0 | 0.0 | 0.00 | 0.00 | 0.00 | 1013.2 | ||
| 20260906124543 | 0 | 0.0 | 0.0 | 0.00 | 0.00 | 0.00 | 1013.1 | ||
| 20260906123040 | 0 | 0.0 | 0.0 | 0.00 | 0.00 | 0.00 | 1013.0 | ||
| 20260906121537 | 0 | 0.0 | 0.0 | 0.00 | 0.00 | 0.00 | 1013.0 | ||
| 20260906120033 | 0 | 0.0 | 0.0 | 0.00 | 0.00 | 0.00 | 1013.1 | ||
| 20260906114541 | 0 | 0.0 | 0.0 | 0.00 | 0.00 | 0.00 | 1013.2 | ||
| 20260906113024 | 0 | 0.0 | 0.0 | 0.00 | 0.00 | 0.00 | 1013.3 | ||
| 20260906111517 | 0 | 0.0 | 0.0 | 0.00 | 0.00 | 0.00 | 1013.4 | ||
| 20260906110016 | 0 | 0.0 | 0.0 | 0.00 | 0.00 | 0.00 | 1013.6 | ||
| 20260906104514 | 46 | 20 | 0.0 | 0.0 | 0.00 | 0.00 | 0.00 | 83 | 1013.7 |
| 20260906103009 | 46 | 354 | 0.0 | 0.0 | 0.00 | 0.00 | 0.00 | 84 | 1013.4 |
| 20260906101518 | 47 | 354 | 0.0 | 0.0 | 0.00 | 0.00 | 0.00 | 84 | 1013.4 |
| 20260906100006 | 47 | 354 | 0.0 | 0.0 | 0.00 | 0.00 | 0.00 | 84 | 1013.4 |
| 20260906094506 | 47 | 354 | 0.0 | 0.0 | 0.00 | 0.00 | 0.00 | 83 | 1013.3 |
| 20260906093002 | 48 | 354 | 0.0 | 0.0 | 0.00 | 0.00 | 0.00 | 82 | 1013.4 |
| 20260906091602 | 48 | 354 | 0.0 | 0.0 | 0.00 | 0.00 | 0.00 | 82 | 1013.4 |
| 20260906090101 | 48 | 354 | 0.0 | 0.0 | 0.00 | 0.00 | 0.00 | 82 | 1013.2 |
| 20260906084558 | 49 | 354 | 0.0 | 0.9 | 0.00 | 0.00 | 0.00 | 81 | 1013.4 |
| 20260906083055 | 49 | 354 | 0.0 | 0.0 | 0.00 | 0.00 | 0.00 | 81 | 1013.4 |
| 20260906081554 | 49 | 354 | 0.0 | 0.0 | 0.00 | 0.00 | 0.00 | 80 | 1013.5 |
| 20260906080057 | 50 | 354 | 0.0 | 0.0 | 0.00 | 0.00 | 0.00 | 80 | 1013.4 |
| 20260906074550 | 50 | 354 | 0.0 | 0.0 | 0.00 | 0.00 | 0.00 | 80 | 1013.5 |
| 20260906073052 | 50 | 354 | 0.0 | 0.0 | 0.00 | 0.00 | 0.00 | 79 | 1013.5 |
| 20260906071551 | 51 | 354 | 0.0 | 0.0 | 0.00 | 0.00 | 0.00 | 79 | 1013.6 |
| 20260906070045 | 51 | 354 | 0.0 | 0.0 | 0.00 | 0.00 | 0.00 | 79 | 1013.6 |
| 20260906064544 | 52 | 354 | 0.0 | 0.0 | 0.00 | 0.00 | 0.00 | 79 | 1013.4 |
| 20260906063041 | 52 | 354 | 0.0 | 0.0 | 0.00 | 0.00 | 0.00 | 79 | 1013.4 |
| 20260906061538 | 52 | 354 | 0.0 | 0.0 | 0.00 | 0.00 | 0.00 | 78 | 1013.4 |
| 20260906060037 | 53 | 354 | 0.0 | 0.0 | 0.00 | 0.00 | 0.00 | 78 | 1013.4 |
| 20260906054553 | 53 | 354 | 0.0 | 0.0 | 0.00 | 0.00 | 0.00 | 77 | 1013.3 |
| 20260906053035 | 54 | 354 | 0.0 | 0.0 | 0.00 | 0.00 | 0.00 | 76 | 1013.1 |
| 20260906051547 | 55 | 354 | 0.0 | 0.0 | 0.00 | 0.00 | 0.00 | 75 | 1013.0 |
| 20260906050036 | 55 | 354 | 0.0 | 0.0 | 0.00 | 0.00 | 0.00 | 72 | 1012.8 |
| 20260906044536 | 55 | 354 | 0.0 | 0.0 | 0.00 | 0.00 | 0.00 | 74 | 1012.7 |
| 20260906043033 | 56 | 354 | 0.0 | 0.0 | 0.00 | 0.00 | 0.00 | 73 | 1012.6 |
| 20260906041535 | 56 | 354 | 0.0 | 0.0 | 0.00 | 0.00 | 0.00 | 75 | 1012.6 |
| 20260906040058 | 56 | 354 | 0.0 | 0.0 | 0.00 | 0.00 | 0.00 | 74 | 1012.8 |
| 20260906034533 | 57 | 354 | 0.0 | 0.0 | 0.00 | 0.00 | 0.00 | 76 | 1012.6 |
| 20260906033044 | 57 | 354 | 0.0 | 0.0 | 0.00 | 0.00 | 0.00 | 74 | 1012.5 |
| 20260906031532 | 58 | 354 | 0.0 | 0.0 | 0.00 | 0.00 | 0.00 | 72 | 1012.4 |
| 20260906030032 | 58 | 354 | 0.0 | 0.0 | 0.00 | 0.00 | 0.00 | 72 | 1012.3 |
| 20260906024531 | 59 | 354 | 0.0 | 0.0 | 0.00 | 0.00 | 0.00 | 72 | 1011.8 |
| 20260906023033 | 59 | 354 | 0.0 | 0.0 | 0.00 | 0.00 | 0.00 | 70 | 1011.7 |
| 20260906021530 | 60 | 354 | 0.0 | 0.0 | 0.00 | 0.00 | 0.00 | 69 | 1011.4 |
| 20260906020029 | 61 | 354 | 0.0 | 0.0 | 0.00 | 0.00 | 0.00 | 65 | 1011.1 |
| 20260906014530 | 63 | 354 | 0.0 | 0.0 | 0.00 | 0.00 | 0.00 | 66 | 1010.9 |
| 20260906013030 | 64 | 354 | 0.0 | 0.0 | 0.00 | 0.00 | 0.00 | 64 | 1010.8 |
| 20260906011528 | 66 | 354 | 0.0 | 0.0 | 0.00 | 0.00 | 0.00 | 59 | 1010.7 |
| 20260906010028 | 67 | 354 | 0.0 | 0.0 | 0.00 | 0.00 | 0.00 | 55 | 1010.6 |
| 20260906004527 | 69 | 353 | 0.0 | 1.7 | 0.00 | 0.00 | 0.00 | 53 | 1010.6 |
| 20260906003027 | 71 | 326 | 0.0 | 3.5 | 0.00 | 0.00 | 0.00 | 43 | 1010.5 |
| 20260906001526 | 72 | 63 | 0.0 | 2.6 | 0.00 | 0.00 | 0.00 | 40 | 1010.4 |
| 20260906000026 | 73 | 88 | 0.9 | 3.5 | 0.00 | 0.00 | 0.00 | 44 | 1010.3 |
| 20260905234526 | 76 | 328 | 0.0 | 2.6 | 0.00 | 0.00 | 0.00 | 36 | 1010.3 |
| 20260905233023 | 77 | 351 | 0.9 | 3.5 | 0.00 | 0.00 | 0.00 | 39 | 1010.4 |
| 20260905231523 | 78 | 169 | 1.7 | 3.5 | 0.00 | 0.00 | 0.00 | 35 | 1010.4 |
| 20260905230021 | 77 | 125 | 0.0 | 5.2 | 0.00 | 0.00 | 0.00 | 36 | 1010.3 |